Location: Aix-en-Ergny
(50.5839°N, 1.9996°E)
Time: 17:07:43
(UTC+00:00)

RESURS DK-1 - Pass Details

Date: 23 October 2019
Orbit: 558 x 560 km, 69.9° (Epoch: 17 November)

Event Time Altitude Azimuth Distance (km) Brightness Sun altitude
Exits shadow 05:19:34 15° 252° (WSW) 1,567 4.1 -11.4°
Maximum altitude 05:22:30 33° 311° (NW) 962 3.1 -10.9°
Drops below altitude 10° 05:26:16 10° 17° (NNE) 1,856 5.2 -10.3°
Sets 05:28:39 0° 27° (NNE) 2,755 6.2 -9.9°
